1503990000.12,10689,18.88,74266.0,14.79,-30.89,-32.13,0,*41
1503990001.4,10690,18.88,74266.5,14.79,-29.35,-30.51,0,*42
1503990002.68,10691,18.88,74266.8,14.79,-31.91,-33.31,0,*41
1503990003.93,10692,18.88,74266.5,14.79,-32.23,-33.49,0,*47
1503990005.16,10693,18.88,74266.0,14.77,-31.85,-33.21,0,*49
1503990006.39,10694,18.88,74266.8,14.75,-32.57,-34.07,0,*43
1503990007.64,10695,18.88,74266.3,14.69,-32.45,-33.73,0,*48
1503990008.88,10696,18.88,74266.8,14.69,-30.67,-31.91,0,*47
1503990010.13,10697,18.88,74266.0,14.67,-33.09,-34.47,0,*4D
1503990011.38,10698,18.88,74266.5,14.65,-33.09,-34.53,0,*45
1503990012.64,10699,18.88,74264.0,14.65,-33.09,-34.53,0,*44
1503990013.87,10700,18.88,74264.5,14.63,-32.51,-33.67,0,*4F
1503990015.12,10701,18.88,74266.0,14.61,-31.61,-32.63,0,*49
1503990016.38,10702,18.88,74266.0,14.59,-32.79,-33.95,0,*43
1503990017.61,10703,18.88,74262.0,14.57,-31.67,-32.85,0,*40
1503990018.86,10704,18.88,74266.8,14.57,-31.51,-32.45,0,*4E
1503990020.07,10705,18.88,74266.8,14.57,-31.67,-33.03,0,*49
1503990021.29,10706,18.88,74264.0,14.57,-31.05,-32.19,0,*44
1503990022.52,10707,18.88,74264.0,14.57,-30.77,-32.13,0,*4B
1503990023.76,10708,18.88,74260.3,14.57,-32.01,-33.43,0,*43
1503990024.97,10709,18.88,74264.3,14.53,-32.39,-33.67,0,*4B
1503990026.21,10710,18.88,74264.3,14.53,-32.85,-34.77,0,*42
1503990027.44,10711,18.88,74262.3,14.49,-33.55,-35.01,0,*44
1503990028.69,10712,18.88,74266.8,14.47,-32.19,-33.27,0,*42
1503990029.88,10713,18.88,74266.3,14.47,-32.35,-33.55,0,*48
1503990031.13,10714,18.88,74264.5,14.45,-32.29,-33.55,0,*40
1503990032.38,10715,18.88,74264.8,14.45,-31.79,-32.85,0,*4B
1503990033.59,10716,18.88,74266.0,14.43,-32.01,-33.15,0,*4A
1503990034.79,10717,18.88,74266.8,14.43,-31.79,-33.03,0,*40
1503990036.05,10718,18.88,74270.5,14.39,-31.95,-33.31,0,*41
1503990037.28,10719,18.88,74264.0,14.39,-32.23,-33.49,0,*41
1503990038.54,10720,18.88,74266.3,14.39,-31.23,-32.45,0,*45
1503990039.74,10721,18.88,74266.5,14.39,-31.17,-32.39,0,*48
1503990040.97,10722,18.88,74264.8,14.39,-31.91,-33.15,0,*4A
1503990042.23,10723,18.88,74264.0,14.39,-31.51,-32.75,0,*40
1503990043.49,10724,18.88,74266.5,14.37,-32.19,-33.37,0,*41
1503990044.77,10725,18.88,74268.5,14.37,-31.39,-32.63,0,*41
1503990045.97,10726,18.88,74268.0,14.35,-32.51,-33.83,0,*42
1503990047.2,10727,18.88,74266.8,14.35,-32.39,-33.77,0,*46
1503990048.45,10728,18.88,74266.0,14.31,-30.73,-31.57,0,*41
1503990049.69,10729,18.88,74266.3,14.31,-29.45,-30.61,0,*49
1503990050.94,10730,18.88,74266.0,14.33,-28.69,-29.73,0,*47
1503990052.23,10731,18.88,74268.3,14.37,-30.05,-31.23,0,*4D
1503990053.49,10732,18.88,74264.0,14.37,-31.29,-32.45,0,*42
1503990054.75,10733,18.88,74264.8,14.35,-31.61,-32.85,0,*41
1503990056.0,10734,18.88,74262.3,14.35,-32.85,-34.19,0,*4C
1503990057.23,10735,18.88,74262.5,14.31,-33.37,-34.83,0,*42
1503990058.49,10736,18.88,74264.8,14.31,-31.51,-32.75,0,*4C
1503990059.7,10737,18.88,74262.5,14.27,-29.79,-30.83,0,*42
1503990060.95,10738,18.88,74264.5,14.31,-29.45,-30.61,0,*49
1503990062.18,10739,18.88,74264.0,14.33,-29.23,-30.27,0,*48
1503990063.44,10740,18.88,74262.8,14.33,-29.67,-30.61,0,*44
1503990064.7,10741,18.88,74266.0,14.33,-30.05,-31.17,0,*49
1503990065.97,10742,18.88,74264.8,14.33,-29.57,-30.73,0,*46
1503990067.21,10743,18.88,74266.0,14.35,-29.67,-30.89,0,*47
1503990068.44,10744,18.88,74264.5,14.35,-29.01,-30.23,0,*40
1503990069.64,10745,18.88,74264.3,14.35,-30.23,-31.45,0,*48
1503990070.91,10746,18.88,74266.0,14.37,-29.89,-31.05,0,*45
1503990072.14,10747,18.88,74264.3,14.39,-30.01,-31.17,0,*41
1503990073.37,10748,18.88,74266.5,14.39,-29.29,-30.45,0,*4A
1503990074.65,10749,18.88,74264.5,14.37,-31.61,-32.97,0,*4D
1503990075.92,10750,18.88,74264.0,14.37,-30.39,-31.57,0,*46
1503990077.16,10751,18.88,74264.0,14.35,-29.67,-30.89,0,*44
1503990078.41,10752,18.88,74266.0,14.37,-28.47,-29.45,0,*4E
1503990079.64,10753,18.88,74264.8,14.35,-28.05,-29.07,0,*4D
1503990080.89,10754,18.88,74264.0,14.41,-27.89,-28.91,0,*4C
1503990082.11,10755,18.88,74268.5,14.41,-27.89,-28.97,0,*4B
1503990083.34,10756,18.88,74266.3,14.43,-27.89,-28.91,0,*4C
1503990084.59,10757,18.88,74264.5,14.45,-28.43,-29.45,0,*4A
1503990085.85,10758,18.88,74264.5,14.43,-28.75,-29.89,0,*46
1503990087.05,10759,18.88,74264.5,14.47,-27.93,-28.85,0,*49
1503990088.33,10760,18.88,74262.0,14.49,-27.39,-28.59,0,*4C
1503990089.58,10761,18.88,74266.0,14.49,-28.43,-29.45,0,*43
1503990090.85,10762,18.88,74264.8,14.49,-28.09,-29.13,0,*4D
1503990092.08,10763,18.88,74264.3,14.53,-28.21,-29.23,0,*4E
1503990093.32,10764,18.88,74264.5,14.55,-29.57,-30.83,0,*4D
1503990094.56,10765,18.88,74266.0,14.53,-28.91,-29.95,0,*4E
1503990095.83,10766,18.88,74266.8,14.55,-27.39,-28.43,0,*4C
1503990097.09,10767,18.88,74264.3,14.55,-28.85,-30.05,0,*4E
1503990098.35,10768,18.88,74270.0,14.55,-28.85,-29.89,0,*4D
1503990099.61,10769,18.88,74268.0,14.55,-29.89,-31.01,0,*48
1503990100.84,10770,18.88,74264.8,14.55,-29.95,-31.01,0,*4D
1503990102.07,10771,18.88,74266.3,14.55,-29.07,-30.11,0,*47
1503990103.33,10772,18.88,74266.3,14.55,-28.91,-30.11,0,*4A
1503990104.55,10773,18.88,74262.8,14.55,-30.23,-31.33,0,*4A
1503990105.81,10774,18.88,74264.5,14.55,-30.27,-31.61,0,*4E
1503990107.04,10775,18.88,74266.8,14.55,-31.17,-32.39,0,*43
1503990108.32,10776,18.88,74268.5,14.55,-29.51,-30.55,0,*43
1503990109.56,10777,18.88,74270.0,14.53,-30.67,-31.91,0,*40
1503990110.82,10778,18.88,74266.3,14.55,-29.89,-31.01,0,*48
1503990112.08,10779,18.88,74264.5,14.53,-29.51,-30.55,0,*4A
1503990113.32,10780,18.88,74266.8,14.53,-29.73,-30.83,0,*47
1503990114.59,10781,18.88,74266.3,14.55,-29.73,-30.83,0,*40
1503990115.82,10782,18.88,74270.8,14.53,-29.23,-30.39,0,*41
1503990117.03,10783,18.88,74266.8,14.53,-30.67,-32.01,0,*41
1503990118.25,10784,18.88,74266.8,14.53,-29.57,-30.67,0,*4F
1503990119.46,10785,18.88,74264.5,14.53,-28.53,-29.57,0,*40
1503990120.7,10786,18.88,74270.3,14.53,-27.89,-28.91,0,*40
1503990121.97,10787,18.88,74270.0,14.55,-29.39,-30.67,0,*42
1503990123.2,10788,18.88,74266.3,14.55,-29.23,-30.23,0,*46
1503990124.41,10789,18.88,74266.3,14.53,-29.79,-30.83,0,*44
1503990125.63,10790,18.88,74268.8,14.53,-29.79,-30.83,0,*4C
1503990126.87,10791,18.88,74268.0,14.55,-29.95,-31.17,0,*45
1503990128.15,10792,18.88,74268.0,14.55,-29.73,-30.77,0,*49
1503990129.41,10793,18.88,74270.8,14.55,-29.89,-31.01,0,*4D
1503990130.65,10794,18.88,74266.5,14.55,-29.61,-30.83,0,*47
1503990131.86,10795,18.88,74264.8,14.53,-29.95,-31.01,0,*40
1503990133.13,10796,18.88,74268.0,14.53,-29.51,-30.55,0,*4B
1503990134.34,10797,18.88,74270.0,14.53,-29.23,-30.45,0,*4E
1503990135.56,10798,18.88,74264.5,14.55,-30.45,-31.33,0,*4F
1503990136.77,10799,18.88,74266.5,14.53,-30.23,-31.45,0,*49
1503990138.01,10800,18.88,74266.5,14.53,-29.01,-29.95,0,*4A
1503990139.27,10801,18.88,74270.5,14.49,-29.23,-30.17,0,*42
1503990140.53,10802,18.88,74270.3,14.49,-29.57,-30.73,0,*40
1503990141.76,10803,18.88,74268.3,14.49,-31.05,-32.39,0,*43
1503990143.04,10804,18.88,74264.5,14.49,-29.39,-30.51,0,*4E
1503990144.25,10805,18.88,74270.8,14.47,-30.33,-31.45,0,*47
1503990145.47,10806,18.88,74270.3,14.47,-29.29,-30.33,0,*47
1503990146.73,10807,18.88,74270.0,14.47,-29.89,-30.95,0,*40
1503990147.98,10808,18.88,74268.0,14.49,-29.45,-30.51,0,*49
1503990149.22,10809,18.88,74270.5,14.47,-30.39,-31.73,0,*44
1503990150.45,10810,18.88,74268.0,14.47,-30.89,-32.01,0,*41
1503990151.7,10811,18.88,74270.5,14.45,-31.39,-32.69,0,*46
1503990152.95,10812,18.88,74268.5,14.41,-30.45,-31.51,0,*43
1503990154.23,10813,18.88,74270.5,14.45,-29.35,-30.55,0,*4C
1503990155.5,10814,18.88,74266.5,14.43,-29.39,-30.73,0,*45
1503990156.73,10815,18.88,74268.8,14.43,-29.95,-31.11,0,*47
1503990157.99,10816,18.88,74268.5,14.43,-29.73,-30.73,0,*49
1503990159.22,10817,18.88,74266.5,14.43,-29.17,-30.23,0,*4F
1503990160.45,10818,18.88,74268.0,14.43,-29.57,-30.55,0,*45
1503990161.72,10819,18.88,74270.0,14.45,-29.61,-30.77,0,*47
1503990162.96,10820,18.88,74264.8,14.43,-29.67,-30.73,0,*49
1503990164.16,10821,18.88,74266.8,14.43,-29.79,-31.01,0,*43
1503990165.4,10822,18.88,74264.8,14.43,-29.79,-30.77,0,*40
1503990166.61,10823,18.88,74268.0,14.43,-28.53,-29.57,0,*42
1503990167.87,10824,18.88,74266.8,14.45,-29.51,-30.67,0,*4B
1503990169.08,10825,18.88,74264.3,14.43,-31.17,-32.39,0,*4E
1503990170.34,10826,18.88,74266.8,14.43,-29.39,-30.39,0,*4A
1503990171.57,10827,18.88,74266.5,14.43,-29.73,-30.83,0,*44
1503990172.81,10828,18.88,74268.8,14.43,-29.95,-31.11,0,*49
1503990174.05,10829,18.88,74268.5,14.43,-29.57,-30.73,0,*43
1503990175.25,10830,18.88,74264.0,14.43,-30.11,-31.33,0,*44
1503990176.47,10831,18.88,74268.0,14.43,-30.55,-31.79,0,*4B
1503990177.67,10832,18.88,74270.3,14.39,-29.07,-30.27,0,*40
1503990178.93,10833,18.88,74266.8,14.41,-28.91,-29.95,0,*41
1503990180.22,10834,18.88,74270.0,14.45,-29.35,-30.51,0,*4D
1503990181.45,10835,18.88,74264.8,14.43,-30.27,-31.51,0,*40
1503990182.67,10836,18.88,74268.5,14.43,-29.79,-30.95,0,*49
1503990183.92,10837,18.88,74270.3,14.41,-28.37,-29.29,0,*4E
1503990185.13,10838,18.88,74270.0,14.43,-28.53,-29.67,0,*4B
1503990186.36,10839,18.88,74268.0,14.43,-29.17,-29.95,0,*46
1503990187.61,10840,18.88,74264.5,14.45,-29.13,-30.33,0,*4E
1503990188.87,10841,18.88,74270.0,14.45,-28.63,-29.67,0,*40
1503990190.16,10842,18.88,74266.5,14.45,-29.35,-30.73,0,*4C
1503990191.39,10843,18.88,74268.5,14.43,-29.95,-31.11,0,*44
1503990192.63,10844,18.88,74266.5,14.43,-28.37,-29.51,0,*47
1503990193.88,10845,18.88,74266.3,14.45,-28.63,-29.67,0,*44
1503990195.14,10846,18.88,74268.5,14.45,-27.45,-28.53,0,*4A
1503990196.38,10847,18.88,74268.0,14.45,-27.83,-28.97,0,*49
1503990197.63,10848,18.88,74270.5,14.47,-30.05,-31.39,0,*40
1503990198.89,10849,18.88,74268.8,14.47,-29.01,-30.17,0,*40
1503990200.12,10850,18.88,74266.8,14.49,-28.37,-29.45,0,*4D
1503990201.38,10851,18.88,74268.3,14.49,-28.09,-29.29,0,*4B
1503990202.62,10852,18.88,74268.8,14.49,-29.67,-30.83,0,*49
1503990203.87,10853,18.88,74268.8,14.49,-28.37,-29.39,0,*45
1503990205.12,10854,18.88,74268.5,14.49,-28.43,-29.95,0,*47
1503990206.35,10855,18.88,74266.8,14.49,-30.27,-31.67,0,*49
1503990207.59,10856,18.88,74268.5,14.49,-30.33,-31.57,0,*4C
1503990208.81,10857,18.88,74264.8,14.49,-30.33,-31.67,0,*4E
1503990210.09,10858,18.88,74268.3,14.45,-30.95,-32.19,0,*4B
1503990211.34,10859,18.88,74268.3,14.45,-28.31,-29.29,0,*44
1503990212.56,10860,18.88,74268.3,14.45,-27.51,-28.53,0,*4B
1503990213.83,10861,18.88,74264.5,14.47,-29.35,-30.73,0,*4F
1503990215.06,10862,18.88,74264.8,14.49,-29.07,-30.27,0,*42
1503990216.31,10863,18.88,74266.5,14.49,-30.11,-31.23,0,*49
1503990217.58,10864,18.88,74264.5,14.43,-29.51,-30.77,0,*48
1503990218.84,10865,18.88,74266.0,14.45,-28.79,-29.83,0,*47
1503990220.09,10866,18.88,74268.0,14.47,-28.79,-30.05,0,*40
1503990221.34,10867,18.88,74268.5,14.49,-30.11,-31.39,0,*46
1503990222.59,10868,18.88,74268.5,14.45,-30.01,-31.05,0,*4B
1503990223.82,10869,18.88,74264.3,14.45,-27.77,-28.85,0,*4D
1503990225.02,10870,18.88,74266.8,14.47,-28.53,-29.79,0,*4C
1503990226.25,10871,18.88,74264.3,14.47,-29.29,-30.67,0,*46
1503990227.51,10872,18.88,74264.8,14.45,-29.89,-31.05,0,*48
1503990228.79,10873,18.88,74266.8,14.45,-29.29,-30.55,0,*47
1503990229.98,10874,18.88,74264.3,14.47,-27.93,-28.97,0,*4A
1503990231.23,10875,18.88,74266.0,14.49,-28.09,-29.61,0,*41
1503990232.51,10876,18.88,74264.8,14.49,-30.17,-31.39,0,*40
1503990233.76,10877,18.88,74270.3,14.49,-28.63,-29.79,0,*46
1503990235.01,10878,18.88,74268.5,14.49,-28.47,-29.61,0,*46
1503990236.26,10879,18.88,74268.8,14.49,-29.13,-30.33,0,*48
1503990237.51,10880,18.88,74264.5,14.49,-28.75,-29.95,0,*4B
1503990238.8,10881,18.88,74264.0,14.49,-28.91,-30.17,0,*42
1503990240.02,10882,18.88,74266.8,14.47,-30.05,-31.29,0,*47
1503990241.25,10883,18.88,74264.0,14.47,-30.17,-31.45,0,*4F
1503990242.48,10884,18.88,74266.5,14.47,-29.13,-30.23,0,*45
1503990243.71,10885,18.88,74270.3,14.47,-29.13,-30.33,0,*45
1503990244.95,10886,18.88,74266.8,14.47,-29.73,-30.95,0,*4C
1503990246.19,10887,18.88,74270.3,14.47,-29.35,-30.67,0,*42
1503990247.45,10888,18.88,74266.8,14.47,-28.63,-30.01,0,*4F
1503990248.71,10889,18.88,74264.8,14.47,-29.89,-31.23,0,*4A
1503990249.91,10890,18.88,74270.3,14.47,-28.53,-29.61,0,*4B
1503990251.14,10891,18.88,74268.5,14.47,-27.29,-28.25,0,*49
1503990252.41,10892,18.88,74266.8,14.49,-28.05,-29.13,0,*41
1503990253.66,10893,18.88,74268.5,14.47,-29.13,-30.39,0,*48
1503990254.92,10894,18.88,74266.8,14.49,-28.97,-30.17,0,*40
1503990256.2,10895,18.88,74268.0,14.49,-30.01,-31.23,0,*41
1503990257.45,10896,18.88,74266.0,14.47,-28.09,-29.17,0,*43
1503990258.67,10897,18.88,74264.5,14.49,-27.93,-29.07,0,*41
1503990259.92,10898,18.88,74268.5,14.49,-28.75,-29.95,0,*42
1503990261.17,10899,18.88,74266.8,14.53,-29.17,-30.39,0,*43
1503990262.41,10900,18.88,74270.3,14.53,-28.91,-30.11,0,*47
1503990263.66,10901,18.88,74266.0,14.49,-28.79,-29.95,0,*4F
1503990264.89,10902,18.88,74270.8,14.49,-28.37,-29.57,0,*48
1503990266.13,10903,18.88,74266.0,14.53,-28.85,-30.05,0,*44
1503990267.36,10904,18.88,74268.5,14.53,-28.31,-29.51,0,*45
1503990268.6,10905,18.88,74270.8,14.53,-29.39,-30.45,0,*40
1503990269.86,10906,18.88,74264.3,14.53,-29.17,-30.39,0,*44
1503990271.1,10907,18.88,74264.8,14.53,-28.31,-29.35,0,*44
1503990272.38,10908,18.88,74268.0,14.55,-26.97,-27.99,0,*47
1503990273.63,10909,18.88,74266.3,14.55,-27.67,-28.75,0,*45
1503990274.86,10910,18.88,74266.5,14.57,-27.93,-29.01,0,*46
1503990276.09,10911,18.88,74266.5,14.57,-27.83,-28.85,0,*4B
1503990277.33,10912,18.88,74268.8,14.57,-28.97,-30.17,0,*40
1503990278.62,10913,18.88,74268.5,14.59,-29.51,-30.73,0,*46
1503990279.86,10914,18.88,74268.3,14.57,-29.01,-30.33,0,*4E
1503990281.09,10915,18.88,74264.8,14.55,-28.85,-30.11,0,*40
1503990282.34,10916,18.88,74266.8,14.55,-27.55,-28.75,0,*4A
1503990283.56,10917,18.88,74268.3,14.59,-26.87,-27.93,0,*4E
1503990284.79,10918,18.88,74268.8,14.59,-26.87,-27.89,0,*4A
1503990286.07,10919,18.88,74264.8,14.59,-27.19,-28.25,0,*44
1503990287.27,10920,18.88,74270.0,14.61,-27.03,-27.93,0,*4C
1503990288.52,10921,18.88,74264.3,14.63,-28.05,-29.23,0,*43
1503990289.78,10922,18.88,74270.3,14.63,-27.55,-28.59,0,*46
1503990291.03,10923,18.88,74270.0,14.63,-27.39,-28.53,0,*47
1503990292.3,10924,18.88,74270.3,14.63,-27.19,-28.25,0,*43
1503990293.55,10925,18.88,74270.3,14.67,-26.45,-27.45,0,*47
1503990294.78,10926,18.88,74270.3,14.65,-26.97,-28.15,0,*43
1503990296.03,10927,18.88,74270.8,14.67,-26.93,-27.93,0,*45
1503990297.31,10928,18.88,74264.5,14.71,-27.23,-28.43,0,*45
1503990298.54,10929,18.88,74270.8,14.69,-27.77,-28.79,0,*45
1503990299.81,10930,18.88,74266.8,14.71,-27.39,-28.43,0,*47
1503990301.07,10931,18.88,74266.5,14.69,-27.45,-28.43,0,*44
1503990302.32,10932,18.88,74268.0,14.75,-28.43,-29.57,0,*47
1503990303.6,10933,18.88,74266.8,14.75,-27.23,-28.43,0,*4B
1503990304.87,10934,18.81,74264.0,14.75,-28.43,-29.73,0,*47
1503990306.14,10935,18.88,74266.8,14.75,-28.09,-29.39,0,*46
1503990307.4,10936,18.88,74268.0,14.75,-28.53,-29.73,0,*44
1503990308.63,10937,18.88,74268.0,14.77,-28.69,-29.89,0,*4B
1503990309.88,10938,18.88,74268.3,14.75,-27.51,-28.59,0,*4E
1503990311.12,10939,18.88,74268.8,14.75,-29.23,-30.33,0,*41
1503990312.37,10940,18.88,74266.8,14.75,-28.43,-29.57,0,*42
1503990313.62,10941,18.88,74268.5,14.77,-27.99,-29.17,0,*4D
1503990314.88,10942,18.88,74264.5,14.77,-27.35,-28.63,0,*4A
1503990316.13,10943,18.88,74268.5,14.77,-28.05,-29.17,0,*45
1503990317.36,10944,18.88,74270.8,14.77,-26.81,-27.93,0,*42
1503990318.63,10945,18.88,74266.8,14.77,-26.33,-27.35,0,*46
1503990319.88,10946,18.88,74268.3,14.77,-27.61,-28.79,0,*44
1503990321.11,10947,18.88,74268.0,14.81,-27.13,-28.25,0,*40
1503990322.36,10948,18.88,74272.3,14.81,-27.23,-28.43,0,*4C
1503990323.61,10949,18.88,74268.0,14.81,-27.39,-28.47,0,*42
1503990324.89,10950,18.88,74268.5,14.83,-27.19,-28.21,0,*4A
1503990326.12,10951,18.88,74268.0,14.85,-27.07,-28.21,0,*42
1503990327.38,10952,18.88,74268.5,14.83,-26.81,-27.89,0,*45
1503990328.61,10953,18.88,74268.5,14.85,-26.71,-27.71,0,*4A
1503990329.86,10954,18.88,74268.0,14.87,-27.99,-29.23,0,*41
1503990331.09,10955,18.88,74264.8,14.87,-27.13,-28.31,0,*40
1503990332.39,10956,18.88,74270.0,14.87,-27.61,-28.63,0,*41
1503990333.63,10957,18.88,74270.8,14.89,-26.97,-28.15,0,*47
1503990334.87,10958,18.88,74268.5,14.89,-26.97,-28.15,0,*48
1503990336.1,10959,18.88,74268.8,14.89,-27.23,-28.31,0,*41
1503990337.36,10960,18.88,74264.8,14.89,-26.81,-27.99,0,*4F
1503990338.61,10961,18.88,74268.5,14.91,-26.55,-27.71,0,*48
1503990339.82,10962,18.88,74270.5,14.93,-26.65,-27.77,0,*4C
1503990341.04,10963,18.88,74264.8,14.93,-27.93,-29.13,0,*49
1503990342.3,10964,18.88,74268.0,14.91,-27.07,-28.09,0,*4B
1503990343.53,10965,18.88,74270.8,14.93,-26.23,-27.39,0,*43
1503990344.81,10966,18.88,74270.5,14.99,-27.61,-28.79,0,*46
1503990346.06,10967,18.88,74270.3,14.95,-27.67,-29.01,0,*43
1503990347.32,10968,18.88,74270.3,14.99,-27.29,-28.47,0,*49
1503990348.6,10969,18.88,74268.8,14.99,-27.39,-28.63,0,*4F
1503990349.88,10970,18.88,74266.8,14.99,-26.93,-27.99,0,*4C
1503990351.09,10971,18.88,74270.0,15.01,-26.45,-27.55,0,*46
1503990352.32,10972,18.88,74270.0,15.01,-26.39,-27.45,0,*4F
1503990353.57,10973,18.88,74270.3,15.03,-26.87,-28.09,0,*4E
1503990354.8,10974,18.88,74266.8,15.01,-27.29,-28.43,0,*40
1503990356.03,10975,18.88,74268.5,15.01,-27.93,-29.29,0,*4D
1503990357.29,10976,18.88,74268.8,15.03,-28.69,-30.01,0,*44
1503990358.53,10977,18.88,74268.5,15.01,-29.45,-30.89,0,*48
1503990359.79,10978,18.88,74268.5,14.99,-29.89,-31.29,0,*4C
1503990361.02,10979,18.88,74268.0,14.99,-28.31,-29.67,0,*4C
1503990362.28,10980,18.88,74270.5,14.95,-28.63,-30.11,0,*48
1503990363.56,10981,18.88,74268.3,14.95,-29.01,-30.39,0,*46
1503990364.84,10982,18.88,74268.5,14.95,-29.17,-30.55,0,*48
1503990366.1,10983,18.88,74268.5,14.95,-28.15,-29.35,0,*44
1503990367.36,10984,18.88,74264.0,14.95,-28.91,-30.23,0,*40
1503990368.63,10985,18.88,74270.0,14.95,-29.39,-30.45,0,*42
1503990369.86,10986,18.88,74270.3,14.95,-27.51,-28.69,0,*46
1503990371.09,10987,18.88,74270.0,14.93,-28.59,-29.95,0,*44
1503990372.34,10988,18.88,74264.5,14.95,-27.99,-29.23,0,*43
1503990373.54,10989,18.88,74266.5,14.93,-27.71,-29.07,0,*44
1503990374.8,10990,18.88,74266.8,14.95,-27.29,-28.47,0,*42
1503990376.02,10991,18.88,74268.8,14.99,-26.61,-27.93,0,*44
1503990377.3,10992,18.88,74268.3,14.99,-28.59,-30.39,0,*44
1503990378.57,10993,18.88,74266.8,14.99,-29.45,-30.89,0,*42
1503990379.79,10994,18.88,74270.0,14.93,-30.45,-31.91,0,*4F
1503990381.02,10995,18.88,74270.3,14.93,-29.57,-30.95,0,*40
1503990382.27,10996,18.88,74270.5,14.91,-30.51,-32.01,0,*40
1503990383.52,10997,18.88,74264.5,14.91,-27.35,-28.69,0,*40
1503990384.79,10998,18.88,74264.3,14.93,-26.77,-28.05,0,*40
1503990386.02,10999,18.88,74264.5,14.93,-28.09,-29.45,0,*43
1503990387.26,11000,18.88,74268.3,14.91,-29.23,-30.67,0,*48
1503990388.49,11001,18.88,74270.3,14.91,-29.45,-31.05,0,*4C
1503990389.73,11002,18.88,74270.3,14.89,-29.83,-31.23,0,*48
1503990390.97,11003,18.88,74270.3,14.89,-29.29,-30.67,0,*48
1503990392.19,11004,18.88,74268.5,14.87,-27.89,-29.23,0,*4D
1503990393.45,11005,18.88,74264.3,14.89,-27.45,-28.91,0,*4A
1503990394.68,11006,18.88,74268.0,14.87,-28.97,-30.11,0,*46
1503990395.97,11007,18.88,74268.5,14.87,-29.51,-30.95,0,*40
1503990397.2,11008,18.88,74264.8,14.89,-28.63,-29.67,0,*44
1503990398.43,11009,18.88,74266.5,14.87,-27.51,-28.85,0,*48
1503990399.69,11010,18.88,74264.8,14.91,-28.09,-29.45,0,*48
1503990400.94,11011,18.88,74264.8,14.89,-27.45,-28.79,0,*49
1503990402.16,11012,18.88,74266.3,14.89,-27.77,-29.29,0,*4F
1503990403.44,11013,18.88,74270.8,14.91,-28.05,-29.39,0,*4C
1503990404.7,11014,18.88,74264.5,14.91,-29.29,-30.83,0,*4D
1503990405.94,11015,18.88,74268.0,14.91,-29.61,-31.01,0,*4B
1503990407.19,11016,18.88,74266.8,14.89,-28.63,-30.01,0,*43
1503990408.44,11017,18.88,74268.5,14.89,-27.83,-29.29,0,*41
1503990409.68,11018,18.88,74266.3,14.91,-27.35,-28.69,0,*4F
1503990410.95,11019,18.88,74264.5,14.91,-29.13,-30.67,0,*43
1503990412.17,11020,18.88,74264.8,14.91,-29.79,-31.33,0,*45
1503990413.42,11021,18.88,74266.0,14.89,-29.35,-30.83,0,*4F
1503990414.72,11022,18.88,74270.0,14.87,-29.35,-30.89,0,*48
1503990416.01,11023,18.88,74268.5,14.87,-27.61,-29.01,0,*4E
1503990417.23,11024,18.88,74264.3,14.89,-27.77,-29.17,0,*47
1503990418.49,11025,18.88,74266.8,14.89,-27.99,-29.35,0,*46
1503990419.72,11026,18.88,74268.5,14.89,-28.09,-29.61,0,*42
1503990420.96,11027,18.88,74266.3,14.89,-27.29,-28.63,0,*4D
1503990422.22,11028,18.88,74268.0,14.89,-26.81,-28.09,0,*4D
1503990423.44,11029,18.88,74268.3,14.93,-27.19,-28.69,0,*41
1503990424.69,11030,18.88,74268.5,14.93,-27.39,-28.75,0,*46
1503990425.89,11031,18.88,74268.5,14.93,-27.71,-29.23,0,*49
1503990427.11,11032,18.88,74268.3,14.93,-27.35,-28.69,0,*45
1503990428.37,11033,18.88,74268.5,14.95,-27.89,-29.35,0,*4D
1503990429.63,11034,18.88,74266.0,14.95,-26.87,-28.21,0,*41
1503990430.88,11035,18.88,74268.3,14.95,-26.61,-27.99,0,*44
1503990432.14,11036,18.88,74270.3,15.01,-27.61,-29.13,0,*46
1503990433.4,11037,18.88,74272.0,14.95,-28.21,-29.67,0,*43
1503990434.62,11038,18.88,74264.3,14.99,-26.23,-27.55,0,*43
1503990435.88,11039,18.88,74268.5,14.99,-26.07,-27.23,0,*45
1503990437.14,11040,18.88,74270.3,15.03,-26.87,-28.21,0,*4C
1503990438.38,11041,18.88,74264.5,15.03,-27.07,-28.53,0,*41
1503990439.63,11042,18.88,74268.3,15.05,-26.71,-28.05,0,*47
1503990440.86,11043,18.88,74270.5,15.05,-25.75,-27.07,0,*4C
1503990442.07,11044,18.88,74272.5,15.05,-27.07,-28.53,0,*42
1503990443.32,11045,18.88,74268.3,15.07,-27.55,-29.17,0,*47
1503990444.6,11046,18.88,74266.5,15.07,-28.63,-30.17,0,*46
1503990445.81,11047,18.88,74268.5,15.05,-27.03,-28.37,0,*47
1503990447.03,11048,18.88,74264.0,15.07,-26.87,-28.37,0,*47
1503990448.28,11049,18.88,74270.8,15.07,-27.71,-29.39,0,*41
1503990449.56,11050,18.88,74266.0,15.07,-27.45,-28.91,0,*4D
1503990450.78,11051,18.88,74268.3,15.07,-27.55,-29.07,0,*43
1503990452.04,11052,18.88,74266.3,15.09,-27.61,-29.01,0,*4F
1503990453.3,11053,18.88,74268.3,15.09,-26.81,-28.25,0,*46
1503990454.53,11054,18.88,74266.5,15.11,-27.03,-28.53,0,*42
1503990455.79,11055,18.88,74266.0,15.11,-28.63,-30.27,0,*40
1503990457.01,11056,18.88,74270.3,15.11,-27.03,-28.37,0,*42
1503990458.27,11057,18.88,74268.5,15.11,-26.17,-27.55,0,*4C
1503990459.56,11058,18.88,74268.3,15.11,-26.77,-28.21,0,*49
1503990460.79,11059,18.88,74268.0,15.13,-28.53,-30.01,0,*49
1503990462.01,11060,18.88,74270.5,15.13,-28.09,-29.79,0,*4B
1503990463.26,11061,18.88,74270.5,15.13,-26.55,-28.05,0,*47
1503990464.52,11062,18.88,74268.3,15.13,-26.93,-28.25,0,*4C
1503990465.75,11063,18.88,74264.8,15.15,-27.29,-28.53,0,*4A
1503990466.98,11064,18.88,74268.5,15.13,-26.49,-28.05,0,*4F
1503990468.24,11065,18.88,74266.8,15.15,-26.71,-28.31,0,*44
1503990469.5,11066,18.88,74266.8,15.15,-29.01,-30.67,0,*45
1503990470.75,11067,18.88,74270.3,15.13,-27.83,-29.39,0,*45
1503990471.95,11068,18.88,74268.5,15.13,-27.93,-29.61,0,*46
1503990473.21,11069,18.88,74268.3,15.15,-27.83,-29.29,0,*4C
1503990474.41,11070,18.88,74266.5,15.13,-27.77,-29.45,0,*43
1503990475.65,11071,18.88,74270.8,15.13,-27.19,-28.79,0,*44
1503990476.88,11072,18.88,74266.5,15.13,-28.05,-29.67,0,*4B
1503990478.11,11073,18.88,74268.0,15.13,-27.61,-29.23,0,*47
1503990479.36,11074,18.88,74268.5,15.15,-28.31,-29.73,0,*49
1503990480.63,11075,18.88,74266.3,15.15,-27.35,-29.01,0,*46
1503990481.89,11076,18.88,74270.8,15.15,-27.89,-29.35,0,*45
1503990483.11,11077,18.88,74266.5,15.13,-28.21,-29.79,0,*47
1503990484.34,11078,18.88,74266.8,15.13,-26.93,-28.53,0,*46
1503990485.6,11079,18.88,74270.3,15.15,-26.65,-27.99,0,*41
1503990486.83,11080,18.88,74270.3,15.15,-25.65,-27.03,0,*47
1503990488.06,11081,18.88,74268.5,15.21,-26.45,-27.77,0,*43
1503990489.3,11082,18.88,74268.8,15.23,-26.17,-27.55,0,*45
1503990490.53,11083,18.88,74270.3,15.23,-26.17,-27.93,0,*4E
1503990491.78,11084,18.88,74270.0,15.23,-26.17,-27.45,0,*42
1503990493.06,11085,18.88,74268.3,15.25,-27.19,-28.59,0,*48
1503990494.34,11086,18.88,74266.3,15.25,-26.93,-28.43,0,*43
1503990495.56,11087,18.88,74268.8,15.25,-26.39,-27.77,0,*4A
1503990496.79,11088,18.88,74268.0,15.25,-26.45,-27.93,0,*44